Temperature
7 6 5 5 4 3 2 1 0 -2 -2 0 0 -0 -2 -2 -2 -3 -3 -3 -4 -4 -4 -5 -5 -6 -6 -6 -5 -5 -5 -5 -5 -4 -4 -4 -4 -4
6 5 5 4 3 2 2 1 -0 -2 -3 -2 -2 -2 -2 -2 -3 -4 -4 -4 -4 -4 -5 -6 -6 -6 -6 -6 -6 -6 -6 -5 -5 -5 -5 -4 -4 -4
5 4 4 3 2 2 1 0 -1 -2 -3 -3 -3 -3 -3 -3 -3 -4 -4 -5 -5 -5 -5 -6 -6 -6 -6 -6 -6 -6 -6 -6 -6 -5 -5 -5 -5 -4
4 3 3 2 1 1 0 -1 -1 -2 -4 -4 -4 -4 -4 -4 -5 -5 -5 -6 -6 -5 -5 -6 -6 -6 -6 -6 -6 -6 -6 -6 -6 -6 -6 -6 -6 -5
3 2 2 1 1 0 -1 -1 -2 -3 -5 -6 -6 -6 -5 -5 -6 -6 -6 -6 -6 -5 -5 -5 -5 -5 -6 -6 -6 -6 -6 -6 -6 -6 -6 -6 -6 -6
2 1 1 0 -0 -1 -2 -3 -4 -5 -6 -7 -7 -7 -7 -6 -7 -7 -7 -6 -6 -5 -5 -6 -6 -6 -6 -5 -6 -6 -6 -5 -5 -6 -6 -6 -6 -6
1 0 0 -0 -1 -2 -4 -5 -6 -6 -7 -7 -8 -8 -8 -8 -8 -8 -8 -7 -6 -6 -5 -6 -6 -6 -5 -5 -5 -5 -5 -6 -6 -6 -7 -7 -7 -6
0 -0 -1 -1 -2 -3 -5 -6 -6 -7 -8 -8 -9 -9 -9 -8 -8 -8 -8 -9 -9 -7 -7 -7 -7 -6 -6 -6 -6 -6 -6 -6 -6 -7 -7 -7 -7 -7
-1 -1 -1 -2 -3 -4 -5 -6 -7 -7 -8 -9 -9 -9 -9 -8 -9 -9 -9 -9 -9 -8 -8 -8 -6 -6 -6 -6 -6 -6 -6 -6 -6 -6 -6 -7 -7 -7
-2 -2 -3 -3 -4 -5 -6 -7 -8 -8 -8 -8 -9 -9 -9 -9 -9 -9 -9 -9 -8 -7 -8 -8 -7 -7 -7 -6 -6 -6 -6 -6 -6 -6 -7 -7 -7 -7
-2 -3 -4 -5 -5 -6 -8 -8 -9 -8 -8 -8 -8 -8 -8 -8 -8 -9 -8 -9 -9 -8 -8 -8 -7 -7 -7 -6 -5 -5 -6 -6 -6 -6 -6 -6 -6 -7
-3 -4 -5 -6 -7 -8 -9 -9 -9 -9 -9 -8 -8 -7 -7 -7 -7 -8 -8 -9 -10 -10 -8 -9 -9 -9 -10 -8 -6 -6 -6 -6 -6 -6 -6 -6 -6 -7
-5 -5 -6 -7 -8 -9 -9 -9 -9 -9 -9 -9 -8 -7 -7 -7 -7 -7 -8 -8 -9 -9 -8 -9 -9 -9 -11 -10 -8 -7 -6 -6 -6 -6 -5 -5 -6 -6
-6 -7 -7 -8 -9 -9 -9 -9 -9 -9 -9 -8 -8 -8 -7 -7 -7 -7 -7 -8 -8 -8 -7 -8 -9 -9 -10 -11 -10 -7 -7 -6 -6 -6 -5 -6 -6 -6
-8 -8 -9 -9 -9 -9 -9 -9 -9 -9 -9 -8 -8 -8 -8 -8 -7 -7 -7 -7 -7 -7 -7 -8 -8 -9 -10 -10 -10 -8 -7 -6 -6 -6 -6 -7 -6 -6
-9 -9 -9 -9 -9 -9 -9 -9 -9 -9 -9 -9 -9 -8 -8 -8 -8 -8 -8 -8 -7 -7 -6 -7 -8 -9 -9 -9 -10 -9 -7 -7 -6 -7 -7 -7 -6 -6
-10 -9 -9 -9 -9 -8 -8 -8 -8 -9 -9 -9 -9 -8 -8 -8 -8 -8 -8 -8 -8 -8 -7 -6 -7 -8 -8 -9 -9 -8 -7 -7 -7 -7 -8 -8 -7 -7
-10 -9 -9 -9 -9 -9 -9 -9 -8 -8 -9 -8 -8 -8 -8 -8 -8 -8 -8 -8 -9 -8 -8 -7 -7 -8 -8 -8 -8 -8 -8 -8 -8 -8 -8 -8 -8 -7
-10 -9 -10 -9 -9 -9 -9 -9 -9 -8 -8 -8 -8 -8 -8 -8 -8 -8 -8 -8 -8 -8 -8 -8 -8 -10 -10 -9 -8 -7 -8 -8 -8 -8 -8 -8 -8 -7
-10 -10 -10 -10 -9 -9 -9 -9 -8 -8 -8 -8 -8 -8 -8 -8 -8 -8 -8 -8 -9 -9 -8 -8 -8 -9 -9 -9 -9 -7 -6 -7 -8 -8 -8 -7 -7 -6
-10 -10 -10 -10 -9 -9 -9 -9 -8 -8 -8 -8 -8 -8 -8 -8 -8 -8 -8 -8 -9 -9 -9 -8 -8 -8 -8 -8 -8 -8 -6 -6 -7 -7 -7 -7 -7 -7
-10 -10 -9 -9 -9 -9 -9 -8 -8 -8 -8 -8 -8 -8 -8 -8 -8 -8 -8 -8 -8 -9 -9 -8 -7 -8 -8 -8 -9 -8 -7 -6 -5 -5 -6 -6 -6 -6
-10 -9 -9 -9 -9 -9 -9 -8 -8 -8 -8 -8 -8 -8 -7 -7 -7 -8 -8 -8 -8 -8 -8 -8 -8 -8 -8 -8 -8 -8 -7 -7 -6 -6 -5 -5 -5 -5
Wind_Speed
6 5 4 3 3 3 3 4 3 3 3 4 3 3 11 14 16 16 16 23 27 27 26 26 26 27 27 28 28 28 28 28 29 29 29 30 30 31
4 5 4 3 3 3 3 3 4 5 4 4 4 5 10 13 18 19 20 25 24 25 25 26 26 27 28 28 28 28 28 29 29 29 30 30 31 31
5 5 4 4 3 3 3 3 4 4 7 5 4 5 6 8 14 18 19 19 19 23 26 27 27 28 28 28 29 29 29 29 29 30 30 30 30 30
5 4 4 3 4 4 4 4 5 5 6 8 5 5 7 8 8 10 16 18 18 24 26 27 27 28 28 28 28 28 29 29 29 29 30 30 30 30
4 3 3 4 4 4 5 5 5 6 5 6 7 5 6 7 9 11 11 11 17 21 23 25 26 27 27 28 29 29 30 30 30 29 29 29 29 30
3 1 3 4 5 6 5 7 6 6 5 6 7 7 7 8 7 8 11 8 10 14 20 22 24 25 27 28 29 30 30 30 30 29 29 29 29 30
1 1 2 4 7 6 6 5 5 4 5 5 7 9 10 8 9 8 13 12 10 11 10 9 11 11 16 25 27 28 29 30 30 30 30 30 30 30
1 3 4 5 7 9 10 12 11 8 6 5 8 11 12 11 10 11 12 14 11 4 7 12 10 13 10 13 25 29 30 31 31 31 31 29 29 28
2 3 3 4 6 5 9 13 12 15 15 12 12 12 13 13 13 14 13 14 16 11 13 17 11 14 11 18 28 30 32 32 31 29 28 27 26 26
1 1 3 5 6 8 7 7 7 8 12 11 10 12 13 12 12 14 14 13 13 11 9 14 14 14 14 10 26 30 30 29 27 27 27 27 27 27
3 3 5 5 12 14 9 7 8 9 15 20 21 20 23 24 19 11 9 11 16 13 7 6 8 11 12 13 16 24 24 25 27 29 29 28 28 26
3 4 8 10 14 15 9 8 10 10 10 11 12 15 14 16 19 10 7 10 12 9 4 4 7 8 8 6 8 9 14 23 28 29 28 28 27 18
4 4 5 14 16 17 15 8 12 13 6 7 9 10 9 8 8 6 6 9 12 11 8 6 8 7 8 9 7 10 13 13 13 17 23 26 26 20
4 4 7 16 17 17 13 13 18 14 6 8 9 10 9 10 10 10 10 10 13 16 16 13 12 12 13 17 14 10 10 11 13 15 13 20 21 23
5 11 14 16 15 10 13 16 13 7 8 8 9 10 8 9 10 11 11 11 13 15 17 14 15 14 14 16 15 16 16 13 13 12 10 10 12 12
7 10 12 12 10 11 11 9 7 7 8 8 10 11 11 10 10 9 11 12 12 13 10 12 13 15 15 16 16 18 16 11 11 13 14 14 13 13
6 2 3 5 5 6 6 6 6 7 7 8 10 11 12 11 12 9 9 11 12 14 16 11 8 11 15 16 17 18 17 16 15 14 14 16 15 13
6 4 5 6 7 8 9 9 9 8 8 9 10 10 11 11 12 11 10 11 13 14 14 14 14 14 11 11 18 18 16 16 15 14 14 17 18 12
4 4 5 6 7 7 7 8 9 9 8 9 10 10 10 11 11 12 12 12 12 13 14 13 13 14 16 18 9 14 14 16 16 15 14 15 18 15
4 5 6 6 7 7 8 8 9 10 9 9 10 10 10 11 11 12 12 13 14 15 15 13 12 13 14 17 17 16 15 15 15 16 15 14 16 20
6 5 6 7 7 7 8 8 9 10 10 10 10 11 10 10 11 12 13 18 16 14 15 15 15 21 16 13 13 14 14 15 18 17 17 16 16 15
6 6 7 7 7 8 8 8 9 10 10 10 10 10 10 11 12 14 14 14 14 14 16 15 15 14 13 14 16 17 18 18 18 22 22 20 14 10
6 7 8 8 7 7 8 9 10 10 10 10 11 11 11 12 12 13 14 14 14 15 15 16 15 13 13 14 15 16 19 19 16 15 14 18 21 22
Wind_Direction
138 138 134 137 135 139 144 156 184 260 278 270 287 290 331 320 315 317 316 312 306 304 304 303 301 299 298 296 294 293 293 292 290 288 285 283 280 278
142 142 143 153 152 155 163 173 180 201 247 252 252 280 300 306 311 314 305 306 305 303 301 301 300 299 297 296 296 295 294 292 290 288 285 283 281 279
144 157 171 170 173 184 187 195 207 204 249 265 252 276 283 287 301 300 300 296 294 300 301 300 299 298 298 297 296 294 293 291 290 289 288 286 284 281
152 161 184 187 195 202 208 223 231 225 238 275 278 276 276 284 286 290 299 297 294 297 299 299 299 298 297 296 295 295 295 294 293 291 288 286 283 281
145 175 204 203 218 224 229 237 242 250 243 269 287 280 280 287 290 289 286 284 289 295 298 298 296 296 296 296 297 297 296 294 292 290 287 283 280 278
102 167 224 220 227 233 239 243 249 258 263 270 285 293 293 289 285 294 300 286 289 294 292 291 292 294 294 294 294 294 292 291 289 286 284 282 280 277
61 328 279 253 246 252 254 246 241 249 263 272 288 299 300 301 299 297 301 302 291 282 280 279 284 281 284 287 289 288 287 286 286 286 285 284 282 279
350 327 307 289 289 300 299 296 291 284 283 281 291 295 296 295 295 297 301 304 302 275 288 295 287 286 282 277 284 286 287 288 288 288 286 283 280 277
360 341 332 325 332 306 296 298 295 295 295 295 292 288 289 290 291 292 291 292 294 297 300 295 289 286 284 284 288 289 289 289 288 287 285 283 281 281
10 337 307 303 305 300 279 277 269 277 285 285 274 274 276 277 276 286 293 295 290 284 277 286 291 288 288 280 286 286 286 287 286 286 286 286 284 281
294 302 312 299 308 310 304 291 285 281 290 291 290 290 294 298 300 299 295 298 298 296 275 272 285 294 291 281 278 282 284 287 288 288 287 284 282 280
295 298 315 316 311 311 303 293 292 289 285 290 294 296 294 292 296 286 275 287 294 296 257 255 287 306 299 262 255 270 280 284 286 286 285 284 283 281
308 307 303 316 313 312 312 303 297 304 307 307 303 299 296 291 289 277 261 267 281 281 280 285 284 279 277 288 280 274 277 280 283 282 283 282 280 277
301 291 294 310 314 318 319 311 311 321 322 309 302 300 299 299 297 291 282 270 264 269 276 277 277 281 284 286 290 287 278 279 280 280 277 279 278 275
292 302 308 315 322 323 315 316 323 320 307 303 301 298 293 289 293 294 292 285 278 273 272 266 266 273 273 278 282 288 293 291 279 272 270 266 266 268
294 300 315 324 325 319 316 315 307 296 301 300 301 300 301 298 296 296 299 304 301 295 275 258 256 262 272 274 278 282 283 279 277 275 276 277 271 263
312 329 336 325 322 316 311 305 304 308 307 302 301 302 302 301 299 300 294 298 294 297 303 299 266 256 260 268 276 276 277 277 275 276 279 280 275 264
343 334 320 317 315 317 317 316 313 307 304 303 300 297 298 299 299 299 296 295 294 295 295 298 303 302 292 264 243 260 270 275 278 277 276 281 282 271
335 309 304 305 305 304 303 303 304 302 301 299 296 296 296 296 297 299 300 298 296 294 293 294 295 298 302 305 275 237 260 280 285 283 278 275 279 281
312 304 302 302 302 301 302 302 302 304 303 300 297 295 295 296 297 297 297 297 298 299 299 297 293 294 295 298 299 294 274 275 285 287 287 282 277 278
311 305 299 297 297 297 297 296 295 297 297 298 296 295 295 296 296 295 296 298 300 299 300 301 297 299 297 294 293 294 295 286 283 286 289 289 289 286
305 303 300 295 295 295 295 296 297 296 297 296 295 295 295 294 294 296 296 298 299 298 299 300 301 305 304 303 301 302 304 305 301 294 286 279 284 288
301 301 299 296 292 290 291 292 292 293 293 293 294 295 297 297 295 293 294 296 299 303 308 310 311 310 308 305 304 305 306 310 312 312 306 296 290 285
Height
1499 1498 1497 1496 1495 1494 1493 1492 1490 1485 1481 1480 1480 1478 1475 1471 1467 1463 1459 1455 1452 1449 1445 1442 1440 1437 1435 1433 1431 1429 1427 1425 1423 1421 1420 1418 1417 1416
1494 1494 1493 1492 1491 1490 1488 1486 1484 1481 1476 1473 1473 1471 1467 1464 1460 1455 1451 1447 1444 1441 1437 1434 1432 1429 1427 1424 1422 1420 1418 1415 1413 1412 1410 1409 1407 1406
1490 1489 1489 1488 1486 1485 1483 1481 1479 1476 1471 1466 1466 1463 1460 1456 1452 1448 1444 1440 1436 1433 1430 1426 1424 1421 1418 1415 1413 1410 1408 1406 1404 1402 1400 1398 1397 1396
1485 1485 1484 1483 1481 1480 1478 1475 1473 1470 1465 1460 1457 1455 1452 1449 1444 1440 1436 1433 1429 1425 1422 1418 1415 1412 1409 1406 1404 1401 1398 1395 1393 1390 1388 1387 1386 1384
1481 1480 1479 1478 1476 1474 1472 1469 1467 1464 1460 1455 1450 1448 1444 1441 1436 1432 1428 1425 1421 1417 1414 1410 1407 1404 1401 1398 1395 1391 1388 1385 1382 1379 1377 1375 1374 1373
1476 1475 1474 1473 1471 1469 1466 1463 1460 1457 1454 1450 1445 1441 1437 1434 1430 1425 1419 1416 1412 1410 1406 1403 1399 1396 1393 1389 1385 1382 1378 1375 1371 1369 1367 1365 1364 1362
1471 1470 1469 1468 1465 1463 1460 1457 1455 1451 1448 1444 1440 1435 1431 1428 1424 1419 1413 1407 1403 1401 1397 1393 1390 1385 1383 1380 1376 1372 1368 1364 1361 1359 1356 1354 1353 1351
1467 1466 1464 1462 1460 1457 1455 1452 1450 1447 1443 1440 1435 1431 1426 1422 1418 1413 1408 1402 1395 1394 1389 1383 1382 1376 1373 1369 1365 1361 1358 1354 1351 1348 1345 1343 1341 1340
1463 1461 1459 1456 1454 1451 1448 1446 1443 1441 1439 1436 1430 1425 1421 1417 1413 1408 1404 1398 1392 1388 1383 1373 1372 1367 1363 1359 1356 1352 1348 1344 1340 1337 1335 1332 1331 1329
1458 1455 1453 1450 1448 1445 1442 1439 1437 1435 1432 1428 1424 1419 1416 1412 1409 1404 1399 1392 1385 1381 1378 1368 1361 1357 1352 1349 1346 1343 1339 1335 1331 1327 1325 1322 1320 1318
1454 1451 1448 1445 1442 1439 1437 1434 1431 1428 1426 1422 1418 1415 1411 1408 1404 1398 1392 1386 1376 1371 1370 1363 1354 1348 1340 1336 1335 1333 1329 1325 1321 1317 1314 1311 1309 1307
1449 1446 1443 1440 1437 1435 1433 1429 1425 1421 1418 1414 1411 1407 1404 1400 1397 1393 1387 1380 1372 1364 1359 1356 1348 1343 1330 1322 1322 1321 1318 1314 1311 1307 1303 1300 1298 1296
1444 1441 1438 1435 1432 1430 1428 1424 1420 1417 1412 1408 1404 1400 1397 1393 1390 1386 1382 1376 1368 1360 1356 1351 1342 1337 1332 1318 1311 1311 1308 1303 1299 1295 1292 1290 1288 1286
1439 1436 1433 1431 1428 1425 1422 1418 1415 1412 1407 1402 1398 1394 1390 1386 1383 1379 1374 1369 1363 1356 1350 1346 1338 1331 1324 1315 1306 1300 1297 1294 1289 1284 1281 1279 1278 1276
1435 1432 1429 1426 1423 1420 1417 1414 1410 1406 1402 1398 1393 1389 1385 1380 1376 1371 1366 1360 1354 1349 1344 1338 1331 1325 1319 1311 1301 1293 1287 1282 1280 1276 1272 1268 1265 1263
1431 1428 1425 1422 1419 1415 1412 1409 1406 1402 1398 1394 1389 1384 1380 1375 1370 1365 1358 1351 1343 1337 1335 1330 1324 1318 1310 1303 1296 1287 1281 1275 1269 1266 1261 1256 1253 1250
1427 1423 1420 1417 1414 1411 1408 1405 1402 1398 1394 1390 1385 1380 1375 1369 1364 1359 1352 1345 1338 1330 1323 1320 1316 1310 1303 1296 1288 1280 1273 1267 1261 1256 1251 1244 1239 1238
1423 1419 1416 1413 1410 1406 1403 1400 1397 1394 1390 1386 1381 1376 1371 1365 1358 1353 1347 1340 1332 1325 1318 1312 1306 1298 1291 1285 1281 1272 1265 1258 1252 1247 1242 1235 1226 1224
1419 1416 1413 1410 1407 1403 1400 1397 1393 1390 1386 1382 1377 1372 1367 1360 1354 1347 1341 1335 1327 1320 1313 1307 1301 1294 1286 1275 1268 1266 1259 1250 1243 1237 1232 1226 1218 1211
1416 1413 1410 1407 1404 1400 1397 1394 1390 1386 1383 1378 1374 1369 1363 1356 1350 1343 1337 1330 1323 1315 1308 1301 1296 1290 1283 1274 1262 1253 1251 1244 1236 1228 1221 1215 1208 1202
1413 1410 1407 1404 1401 1398 1394 1391 1387 1383 1379 1374 1370 1365 1359 1353 1346 1339 1333 1326 1319 1312 1304 1296 1291 1285 1277 1268 1259 1247 1241 1237 1230 1222 1213 1206 1198 1192
1410 1408 1405 1402 1398 1395 1391 1388 1384 1380 1375 1371 1366 1361 1355 1349 1342 1336 1329 1322 1315 1308 1301 1293 1285 1278 1271 1264 1254 1243 1233 1226 1220 1214 1207 1200 1194 1185
1408 1405 1402 1399 1396 1392 1388 1384 1380 1376 1372 1367 1362 1357 1351 1345 1339 1332 1326 1319 1312 1305 1298 1289 1280 1273 1266 1258 1249 1239 1229 1220 1212 1204 1198 1193 1187 1180